382  
SXUS52 KTAE 211318  
OSOTAE  
OSOTAE  
NORTH FLORIDA/SOUTH ALABAMA/SOUTHWEST GEORGIA WEATHER ROUNDUP  
NATIONAL WEATHER SERVICE TALLAHASSEE FLORIDA  
900 AM EDT SAT OCT 21 2017  
 
NOTE: "FAIR" INDICATES FEW OR NO CLOUDS BELOW 12,000 FEET WITH NO  
SIGNIFICANT WEATHER AND/OR OBSTRUCTIONS TO VISIBILITY.  
 
!FLZ017-115-028-034-025-211400   
..NORTH FLORIDA
 
 
 
CITY SKY/WX TMP DP RH WIND PRES REMARKS  
TALLAHASSEE CLOUDY 69 66 90 E9 30.19R  
APALACHICOLA PTSUNNY 72 71 97 NE8 30.15R  
PERRY MOSUNNY 68 66 91 E5 30.19R  
CROSS CITY MOSUNNY 68 67 95 NE6 30.23R  
JACKSONVILLE PTSUNNY 74 69 85 N6 30.19R  

 
 
!FLZ112-006-005-002-011-211400   
..FLORIDA PANHANDLE
 
 
 
CITY SKY/WX TMP DP RH WIND PRES REMARKS  
MARIANNA MOSUNNY 65 63 93 NE6 30.19R  
BONIFAY NOT AVBL  
PANAMA CITY NW FAIR 69 65 86 NE8 30.15R  
TYNDALL AFB MOSUNNY 68 65 92 E7 30.15R  
TYND DRONE APT FAIR 67 66 96 NE9 30.15R  
DE FUNIAK SPR FAIR 65 63 92 E10 30.18R  
EGLIN AFB PTSUNNY 69 64 85 E7 30.14R  
DESTIN MOSUNNY 73 66 78 E8 30.14R  
HURLBURT MOSUNNY 72 67 85 E10 30.12R  
CRESTVIEW MOSUNNY 67 63 87 E6 30.17R  
PENSACOLA CLOUDY 73 67 81 E9 30.12R  

 
 
!ALZ063-066-211400   
..SOUTH ALABAMA
 
 
 
CITY SKY/WX TMP DP RH WIND PRES REMARKS  
DOTHAN PTSUNNY 66 62 87 E8 30.24R  
OZARK CAIRNS MOSUNNY 64 60 88 E9 30.19R  
FT RUCKER HELI CLOUDY 64 62 91 E6 30.19R  
RUCKER HELI 3 FAIR 65 62 90 SE6 30.19S  
RUCKER HELI 2 FAIR 64 60 89 E6 30.19R  
FLORALA APT PTSUNNY 65 61 87 E6 30.20R  
ANDALUSIA CLOUDY 69 63 81 E9 30.17R  
TROY MOSUNNY 62 60 93 E6 30.21R  
EUFALA FAIR 65 59 81 E7 30.23R  
MOBILE CLOUDY 69 65 86 E9 30.12R  

 
 
!GAZ120>161-211400   
..SOUTHWEST AND SOUTH CENTRAL GEORGIA
 
 
 
CITY SKY/WX TMP DP RH WIND PRES REMARKS  
THOMASVILLE FAIR 68 66 94 E7 30.22R  
BAINBRIDGE PTSUNNY 68 66 94 E3 30.21R  
MOODY AFB CLOUDY 67 63 87 NE7 30.20R  
VALDOSTA CLOUDY 67 63 87 E7 30.21R  
MOULTRIE MOSUNNY 66 63 88 E5 30.23R  
BLAKELY PTSUNNY 64 61 88 CALM 30.23R  
ALBANY MOSUNNY 64 61 90 NE6 30.24R  
TIFTON FAIR 64 64 99 NE5 30.24R  
FITZGERALD FAIR 63 62 94 NE5 30.27R  
CORDELE FAIR 66 61 82 E5 30.26R  
AMERICUS FAIR 59 59 100 NE3 30.28R  
HOMERVILLE FAIR 64 63 94 NE5 30.22R  

 
 
!GMZ750-755-770-775-211400   
..COASTAL AND BUOY OBS
 
 
 
STATION/POSITION TIME TEMP WIND PRES VSBY WAVE  
AIR SEA DIR/SP/G HT/PER  
(UTC) (F) (DEG/KT/KT) (MB) (MI) (FT/S)  
KEATON BEACH 1300 69 50/ 9/ 12 1021.4R  
CEDAR KEY 1300 71 50/ 10/ 11 1021.7R  
C TOWER 1300 76 110/ 22/ 24 1020.9R  
APALACHICOLA BUO 1250 79 80 100/ 17/ 19 1019.1R 4/ 6  
PANAMA CITY BUOY 1250 80 81 100/ 19/ 23 1018.2R 6/ 7  
MOBILE BUOY 1300 81 110/ 17/ 21 1017.9  
ORANGE BCH AL BU 1250 79 79 110/ 19/ 23 1018.2R 6/ 6  

 
 
 
CLICK HERE TO GO TO PREVIOUS BULLETINS.

The Nexlab FL Page
The Nexlab GA Page
The Nexlab AL Page Main Text Page